Location: St. Louis
(38.6270°N, 90.1994°W)
Time: 14:57:58
(UTC-06:00)

S-56A Canister/Altair - Pass Details

Date: 09 December 2021
Orbit: 633 x 2499 km, 38.9° (Epoch: 19 January)

Event Time Altitude Azimuth Distance (km) Brightness Sun altitude
Rises 02:27:03 0° 283° (WNW) 4,710 - -53.7°
Reaches altitude 10° 02:30:42 10° 281° (W) 3,420 - -53.0°
Maximum altitude 02:38:42 68° 200° (SSW) 1,055 - -51.5°
Drops below altitude 10° 02:44:05 10° 118° (ESE) 2,341 - -50.5°
Sets 02:46:10 0° 116° (ESE) 3,139 - -50.1°
